Showing default

ZHUHAI-1 03E, 44539

Orbit data source: Space-Track

ZHUHAI-1 03E, 44539 is a payload satellite owned by Zhuhai Orbita (CN) in LEO that was launched on Thu, 19 Sep 2019 UTC via a CHANG ZHENG 11 launch vehicle from the Jiuquan Satellite Launch Center, China (JSC). Payloads include a variety of satellites, spacecraft, and rockets equipped with specific instruments for various scientific and technological missions. These include communications satellites like Starlink; space stations such as the ISS; scientific satellites like the Hubble; Earth observation satellites from companies like Planet Labs, Umbra, and HawkEye 360; GPS; miniature CubeSats for education and research; and military/defense satellites.

Loading next visibility...
ZHUHAI-1 03E details
Identifier
44539, 2019-060F
Orbit
LEO
Last TLE update11 hours ago
Origin
Flag of CNZhuhai Orbita (CN / PRC)
ManufacturerHarbin
MissionOperational Commercial Imaging
Bus & MotorOVS-1, Unknown motor
Mass95 kg wet, 95 kg dry
Launch date (UTC)
2019-09-19 (5 years ago)
Launch vehicle
CHANG ZHENG 11
Launch site
Jiuquan Satellite Launch Center, China (JSC)
Object type
Payload
Rocket body
Debris
Shape & HBRBox, Unknown HBR
Radar Cross Section0.375 m², Medium (>0.1 m² and < 1m²)

Expand to show TLE details & history

TLE from 11 hours ago
0 ZHUHAI-1 03E
1 44539U 19060F   24336.87161380  .00041658  00000-0  13503-2 0  9991
2 44539  97.5079 107.0126 0018397 188.1844 171.9100 15.31710839289706
Epoch: 2024-12-01T20:55Z
Definitive object data (Epoch: 2024-12-01T20:55:07.432Z)
Latitude-0°
Longitude82.02803°
Altitude486.289 km
Speed7.615 km/s
True Right ascension07h 08m 03s
True Declination0° 00' 00"
Sunlit
Object was in full shadow at TLE epoch
Visualization TLE readout
Latitude-79.3668°
Longitude-141.80216°
Altitude495.473 km
Speed7.617 km/s
Apparent Right ascension17h 01m 31s
Apparent Declination-60° 24' 46"
Sunlit
Object is in daylight
Visualization observer readout
Local Sidereal Time05:14:06
Azimuth175.582° S
Elevation-69.41°
Doppler factor1
Orbital elements
Apogee altitude480.257 km
Perigee altitude455.068 km
Semi-major axis6,845.799 km
Eccentricity0.0018397
Inclination97.5079°
RAAN107.0126°
Arg. of periapsis188.1844°
True anomaly171.9396°
Mean anomaly171.91°
Eccentric anomaly171.92481°
Mean motion3.83184 °/min
BSTAR0.0013503
Orbital period93.95 mins
Loading maneuver chart data...
Loading historical data...
Loading historical data...
Loading historical data...
Loading historical data...
Loading historical data...
Loading historical data...
Loading historical data...

ZHUHAI-1 03E Visibility forecast

Observer location: undefined°, undefined

Span
Click to sort rows by Start time (UTC) header in descending order
Start Az.
Max El. time (UTC)
Max El. Az.
Max El.
End time (UTC)
End Az.
4 mins2024-12-02 08:03:01.861Z105.532° ESE2024-12-02 08:05:01.861Z67.002° ENE16.902°2024-12-02 08:07:01.861Z29.715° NE
4 mins2024-12-02 09:36:01.861Z219.203° SW2024-12-02 09:38:01.861Z267.029° W23.078°2024-12-02 09:40:01.861Z311.41° NW
|